Location: Launois
(49.6535°N, 4.5395°E)
Time: 11:25:27
(UTC+00:00)

Cosmos 2360 Rocket - Pass Details

Date: 23 May 2024
Orbit: 832 x 846 km, 71.0° (Epoch: 14 June)

Event Time Altitude Azimuth Distance (km) Brightness Sun altitude
Rises 01:56:58 0° 330° (NNW) 3,417 5.7 -13.3°
Reaches altitude 10° 01:59:25 10° 331° (NNW) 2,478 5.0 -13.1°
Maximum altitude 02:05:08 87° 244° (WSW) 854 2.2 -12.6°
Drops below altitude 10° 02:10:48 10° 155° (SSE) 2,462 4.3 -12.0°
Sets 02:13:14 0° 155° (SSE) 3,392 5.1 -11.8°
